When you browse on this site, cookies collect data to enhance your experience and personalize the content and advertising you see.
Visit our Privacy Policy to learn more. By continuing to use the site, you agree to this use of cookies and data.
  • In Schweiz
  • Länderverzeichnis
  • Für 7 Tage
  • Wassertemperatur
  • Wetterkarte
  • Widgets
  • user-avatar
    Anmelden

    Stündliche Wetter Tuin-Fols

    Heute, 25 Januar, Samstag

    Zeit Temperatur Niederschläge Wind Luftdruck Luftfeuchtigkeit
    00:00 0°C° 0 mm 3 m/S 665 mmHg 81%
    01:00 0°C° 0 mm 3 m/S 665 mmHg 81%
    02:00 +1°C° 0 mm 2 m/S 665 mmHg 80%
    03:00 +1°C° 0 mm 2 m/S 665 mmHg 79%
    04:00 +1°C° 0 mm 2 m/S 666 mmHg 78%
    05:00 +1°C° 0 mm 2 m/S 665 mmHg 78%
    06:00 +1°C° 0 mm 2 m/S 665 mmHg 77%
    07:00 +1°C° 0 mm 2 m/S 665 mmHg 77%
    08:00 +2°C° 0 mm 2 m/S 666 mmHg 74%
    09:00 +3°C° 0 mm 2 m/S 666 mmHg 71%
    10:00 +5°C° 0 mm 2 m/S 667 mmHg 68%
    11:00 +5°C° 0 mm 2 m/S 667 mmHg 69%
    12:00 +5°C° 0 mm 2 m/S 666 mmHg 71%
    13:00 +6°C° 0 mm 2 m/S 666 mmHg 73%
    14:00 +6°C° 0 mm 1 m/S 666 mmHg 77%
    15:00 +6°C° 0 mm 1 m/S 666 mmHg 81%
    16:00 +5°C° 0 mm 1 m/S 665 mmHg 85%
    17:00 +5°C° 0.1 mm 1 m/S 666 mmHg 86%
    18:00 +5°C° 0.1 mm 1 m/S 666 mmHg 88%
    19:00 +4°C° 0.1 mm 2 m/S 666 mmHg 89%
    20:00 +4°C° 0 mm 2 m/S 666 mmHg 88%
    21:00 +3°C° 0 mm 2 m/S 666 mmHg 87%
    22:00 +3°C° 0 mm 2 m/S 666 mmHg 85%
    23:00 +3°C° 0 mm 2 m/S 665 mmHg 85%

    Morgen, 26 Januar, Sonntag

    Zeit Temperatur Niederschläge Wind Luftdruck Luftfeuchtigkeit
    00:00 +3°C° 0 mm 2 m/S 665 mmHg 85%
    01:00 +3°C° 0 mm 2 m/S 665 mmHg 84%
    02:00 +3°C° 0 mm 2 m/S 664 mmHg 84%
    03:00 +2°C° 0 mm 3 m/S 664 mmHg 84%
    04:00 +2°C° 0 mm 3 m/S 664 mmHg 84%
    05:00 +2°C° 0 mm 3 m/S 663 mmHg 84%
    06:00 +3°C° 0 mm 2 m/S 663 mmHg 84%
    07:00 +3°C° 0 mm 2 m/S 663 mmHg 84%
    08:00 +3°C° 0.4 mm 2 m/S 663 mmHg 85%
    09:00 +4°C° 0.4 mm 2 m/S 663 mmHg 86%
    10:00 +4°C° 0.4 mm 2 m/S 663 mmHg 87%
    11:00 +4°C° 0.7 mm 2 m/S 663 mmHg 89%
    12:00 +4°C° 0.7 mm 2 m/S 663 mmHg 90%
    13:00 +3°C° 0.7 mm 3 m/S 662 mmHg 92%
    14:00 +3°C° 0.6 mm 3 m/S 662 mmHg 93%
    15:00 +3°C° 0.6 mm 4 m/S 662 mmHg 93%
    16:00 +2°C° 0.6 mm 5 m/S 662 mmHg 94%
    17:00 +2°C° 0.1 mm 6 m/S 663 mmHg 93%
    18:00 +2°C° 0.1 mm 7 m/S 663 mmHg 91%
    19:00 0°C° 0.1 mm 7 m/S 663 mmHg 90%
    20:00 0°C° 0 mm 7 m/S 664 mmHg 87%
    21:00 -1°C° 0 mm 7 m/S 664 mmHg 85%
    22:00 -1°C° 0 mm 7 m/S 664 mmHg 82%
    23:00 -1°C° 0 mm 8 m/S 665 mmHg 81%

    übermorgen, 27 Januar, Montag

    Zeit Temperatur Niederschläge Wind Luftdruck Luftfeuchtigkeit
    00:00 -1°C° 0 mm 8 m/S 665 mmHg 81%
    01:00 -2°C° 0 mm 8 m/S 666 mmHg 80%
    02:00 -2°C° 0 mm 8 m/S 666 mmHg 80%
    03:00 -2°C° 0 mm 8 m/S 666 mmHg 79%
    04:00 -2°C° 0 mm 8 m/S 666 mmHg 79%
    05:00 -2°C° 0 mm 7 m/S 667 mmHg 79%
    06:00 -2°C° 0 mm 6 m/S 667 mmHg 80%
    07:00 -2°C° 0 mm 5 m/S 668 mmHg 80%
    08:00 0°C° 0 mm 5 m/S 668 mmHg 74%
    09:00 +1°C° 0 mm 5 m/S 668 mmHg 69%
    10:00 +2°C° 0 mm 5 m/S 669 mmHg 63%
    11:00 +3°C° 0 mm 5 m/S 669 mmHg 60%
    12:00 +5°C° 0 mm 4 m/S 669 mmHg 57%
    13:00 +5°C° 0 mm 4 m/S 669 mmHg 55%
    14:00 +5°C° 0 mm 3 m/S 668 mmHg 57%
    15:00 +4°C° 0 mm 3 m/S 668 mmHg 59%
    16:00 +4°C° 0 mm 2 m/S 668 mmHg 61%
    17:00 +3°C° 0.1 mm 3 m/S 668 mmHg 68%
    18:00 +2°C° 0.1 mm 3 m/S 668 mmHg 76%
    19:00 +1°C° 0.1 mm 3 m/S 668 mmHg 84%
    20:00 +1°C° 0 mm 3 m/S 668 mmHg 82%
    21:00 +1°C° 0 mm 3 m/S 669 mmHg 80%
    22:00 +1°C° 0 mm 3 m/S 669 mmHg 77%
    23:00 +1°C° 0 mm 3 m/S 669 mmHg 76%

    28 Januar, Dienstag

    Zeit Temperatur Niederschläge Wind Luftdruck Luftfeuchtigkeit
    00:00 +2°C° 0 mm 2 m/S 668 mmHg 74%
    01:00 +2°C° 0 mm 2 m/S 668 mmHg 72%
    02:00 +1°C° 0.1 mm 3 m/S 668 mmHg 78%
    03:00 +1°C° 0.1 mm 3 m/S 668 mmHg 85%
    04:00 +1°C° 0.1 mm 3 m/S 668 mmHg 92%
    05:00 +1°C° 0.5 mm 3 m/S 668 mmHg 93%
    06:00 +1°C° 0.5 mm 3 m/S 668 mmHg 94%
    07:00 0°C° 0.5 mm 3 m/S 667 mmHg 96%
    08:00 0°C° 0.4 mm 4 m/S 668 mmHg 94%
    09:00 +1°C° 0.4 mm 4 m/S 668 mmHg 92%
    10:00 +1°C° 0.4 mm 4 m/S 668 mmHg 91%
    11:00 +1°C° 0.5 mm 4 m/S 667 mmHg 92%
    12:00 +3°C° 0.5 mm 4 m/S 667 mmHg 93%
    13:00 +3°C° 0.5 mm 3 m/S 667 mmHg 95%
    14:00 +3°C° 0.9 mm 3 m/S 666 mmHg 94%
    15:00 +4°C° 0.9 mm 2 m/S 666 mmHg 93%
    16:00 +4°C° 0.9 mm 2 m/S 666 mmHg 92%
    17:00 +3°C° 0.4 mm 2 m/S 666 mmHg 90%
    18:00 +2°C° 0.4 mm 3 m/S 666 mmHg 87%
    19:00 +2°C° 0.4 mm 3 m/S 666 mmHg 85%
    20:00 0°C° 0.3 mm 4 m/S 666 mmHg 88%
    21:00 0°C° 0.3 mm 4 m/S 666 mmHg 92%
    22:00 0°C° 0.3 mm 4 m/S 666 mmHg 96%
    23:00 -1°C° 0.1 mm 4 m/S 667 mmHg 95%

    29 Januar, Mittwoch

    Zeit Temperatur Niederschläge Wind Luftdruck Luftfeuchtigkeit
    00:00 -1°C° 0.1 mm 4 m/S 667 mmHg 94%
    01:00 -1°C° 0.1 mm 4 m/S 667 mmHg 93%
    02:00 -1°C° 0 mm 4 m/S 667 mmHg 92%
    03:00 -2°C° 0 mm 4 m/S 668 mmHg 91%
    04:00 -2°C° 0 mm 4 m/S 668 mmHg 90%
    05:00 -2°C° 0 mm 4 m/S 668 mmHg 90%
    06:00 -2°C° 0 mm 4 m/S 669 mmHg 89%
    07:00 -1°C° 0 mm 5 m/S 670 mmHg 89%
    08:00 -1°C° 0 mm 4 m/S 670 mmHg 85%
    09:00 0°C° 0 mm 4 m/S 670 mmHg 81%
    10:00 0°C° 0 mm 4 m/S 670 mmHg 77%
    11:00 +1°C° 0 mm 4 m/S 670 mmHg 75%
    12:00 +1°C° 0 mm 4 m/S 670 mmHg 73%
    13:00 +3°C° 0 mm 4 m/S 669 mmHg 70%
    14:00 +3°C° 0 mm 3 m/S 669 mmHg 72%
    15:00 +2°C° 0 mm 3 m/S 669 mmHg 73%
    16:00 +3°C° 0 mm 2 m/S 668 mmHg 74%
    17:00 +2°C° 0 mm 2 m/S 668 mmHg 76%
    18:00 +1°C° 0 mm 2 m/S 668 mmHg 78%
    19:00 -1°C° 0 mm 2 m/S 668 mmHg 80%
    20:00 +1°C° 0 mm 2 m/S 668 mmHg 76%
    21:00 +1°C° 0 mm 2 m/S 668 mmHg 72%
    22:00 +1°C° 0 mm 2 m/S 668 mmHg 68%
    23:00 +2°C° 0 mm 2 m/S 668 mmHg 72%

    30 Januar, Donnerstag

    Zeit Temperatur Niederschläge Wind Luftdruck Luftfeuchtigkeit
    00:00 +1°C° 0 mm 3 m/S 668 mmHg 76%
    01:00 +1°C° 0 mm 3 m/S 668 mmHg 79%
    02:00 +1°C° 0.1 mm 3 m/S 668 mmHg 82%
    03:00 +1°C° 0.1 mm 3 m/S 668 mmHg 86%
    04:00 +1°C° 0.1 mm 3 m/S 668 mmHg 89%
    05:00 +1°C° 0 mm 3 m/S 668 mmHg 89%
    06:00 +2°C° 0 mm 2 m/S 668 mmHg 88%
    07:00 +3°C° 0 mm 1 m/S 669 mmHg 88%
    08:00 +3°C° 0 mm 1 m/S 669 mmHg 87%
    09:00 +3°C° 0 mm 1 m/S 669 mmHg 86%
    10:00 +4°C° 0 mm 1 m/S 670 mmHg 84%
    11:00 +5°C° 0 mm 1 m/S 670 mmHg 83%
    12:00 +4°C° 0 mm 2 m/S 670 mmHg 81%
    13:00 +5°C° 0 mm 2 m/S 670 mmHg 79%
    14:00 +5°C° 0 mm 2 m/S 670 mmHg 81%
    15:00 +6°C° 0 mm 1 m/S 669 mmHg 83%
    16:00 +5°C° 0 mm 1 m/S 669 mmHg 84%
    17:00 +5°C° 0 mm 1 m/S 670 mmHg 85%
    18:00 +4°C° 0 mm 1 m/S 670 mmHg 86%
    19:00 +4°C° 0 mm 1 m/S 670 mmHg 87%
    20:00 +3°C° 0 mm 2 m/S 670 mmHg 86%
    21:00 +3°C° 0 mm 2 m/S 670 mmHg 86%
    22:00 +3°C° 0 mm 2 m/S 670 mmHg 86%
    23:00 +3°C° 0 mm 2 m/S 670 mmHg 86%
    Mehr zeigen